This is the latest recevied weather packets stored in our database for station/object KQ4PPF. If no packets are shown the sender has not sent any weather packets the latest 10 day(s).
| Time | Temp. | Humidity | Pressure | Rain* | Wind** | Luminosity | Snow |
|---|---|---|---|---|---|---|---|
| 1777580744 | 20° C | 40% | 1012.6 hPa | 0 mm | - | 120 W/m² | - |
| 1777580442 | 20° C | 43% | 1012.4 hPa | 0 mm | - | 124 W/m² | - |
| 1777580136 | 20° C | 41% | 1012.5 hPa | 0 mm | - | 135 W/m² | - |
| 1777579833 | 20° C | 42% | 1012.8 hPa | 0 mm | - | 154 W/m² | - |
| 1777579532 | 20° C | 44% | 1012.8 hPa | 0 mm | - | 150 W/m² | - |
| 1777579227 | 20° C | 42% | 1013 hPa | 0 mm | - | 134 W/m² | - |
| 1777578922 | 20° C | 44% | 1013 hPa | 0 mm | - | 130 W/m² | - |
| 1777578618 | 20° C | 46% | 1012.8 hPa | 0 mm | - | 144 W/m² | - |
| 1777578318 | 19.44° C | 44% | 1013.1 hPa | 0 mm | - | 159 W/m² | - |
| 1777578014 | 20° C | 43% | 1013.3 hPa | 0 mm | - | 153 W/m² | - |
| 1777577709 | 20° C | 45% | 1013.4 hPa | 0 mm | - | 150 W/m² | - |
| 1777577407 | 20° C | 47% | 1013 hPa | 0 mm | - | 163 W/m² | - |
| 1777577103 | 20° C | 44% | 1013.3 hPa | 0 mm | - | 158 W/m² | - |
| 1777576799 | 20° C | 46% | 1013.4 hPa | 0 mm | - | 160 W/m² | - |
| 1777576499 | 20° C | 47% | 1013.3 hPa | 0 mm | - | 170 W/m² | - |
| 1777576195 | 20° C | 46% | 1013.2 hPa | 0 mm | - | 180 W/m² | - |
| 1777575890 | 20° C | 44% | 1013.5 hPa | 0 mm | - | 196 W/m² | - |
| 1777575587 | 20° C | 45% | 1013.2 hPa | 0 mm | - | 187 W/m² | - |
| 1777575284 | 20° C | 44% | 1013 hPa | 0 mm | - | 197 W/m² | - |
| 1777574979 | 20° C | 48% | 1013.1 hPa | 0 mm | - | 217 W/m² | - |
| 1777574676 | 20° C | 45% | 1013 hPa | 0 mm | - | 218 W/m² | - |
| 1777574373 | 20° C | 49% | 1013.1 hPa | 0 mm | - | 204 W/m² | - |
| 1777574068 | 19.44° C | 47% | 1012.8 hPa | 0 mm | - | 188 W/m² | - |
| 1777573763 | 19.44° C | 46% | 1012.8 hPa | 0 mm | - | 205 W/m² | - |
| 1777573460 | 20° C | 46% | 1013 hPa | 0 mm | - | 188 W/m² | - |
* Rain latest hour (hover to see other rain measurements)
** Current wind speed in m/s (hover to see current wind gust speed)